#timestamp,LO_Frequency,Hit,StdDev 
1558000815.7,286046998.4,N
1558000835.5,286046996.9,N
1558000855.4,286046996.5,N
1558000875.2,286046999.6,N
1558000895.0,286046999.5,N
1558000895.9,286046999.5,N
1558000915.8,286046999.4,N
1558000935.6,286046996.7,N
1558000955.5,286046996.8,N
1558000975.3,286046998.5,N
1558000995.1,286047000.0,N
1558001015.9,286046998.4,N
1558001035.7,286046998.2,N
1558001055.6,286047000.6,N
1558001075.4,286047002.8,N
1558001095.2,286047000.6,N
1558001115.1,286046998.4,N
1558001116.0,286046998.4,N
1558001135.8,286046997.0,N
1558001155.7,286046997.5,N
1558001175.5,286046997.9,N
1558001195.3,286046996.8,N
1558001215.2,286046997.0,N
1558001235.0,286046997.3,N
1558001235.9,286046997.3,N
1558001255.7,286046998.8,N
1558001275.6,286046999.0,N
1558001295.4,286047000.9,N
1558001315.3,286046998.1,N
1558001335.1,286046996.9,N
1558001355.8,286046997.3,N
1558001375.7,286046996.6,N
1558001395.5,286046997.3,N
1558001415.4,286046996.8,N
1558001435.2,286046998.0,N
1558001455.0,286046995.1,Y
1558001455.9,286046995.1,P
1558001475.8,286046998.9,N
1558001495.6,286046997.3,N
1558001515.4,286046997.1,N
1558001535.3,286046997.1,N
1558001555.1,286046999.6,N
1558001575.9,286046998.7,N
1558001595.7,286046998.2,N
1558001615.5,286046999.5,N
1558001635.4,286046998.4,N
1558001655.2,286047001.0,N
1558001675.1,286047000.5,N
1558001676.0,286047000.5,N
1558001695.8,286047000.5,N
1558001715.6,286046998.5,N
1558001735.5,286047003.1,N
1558001755.3,286047006.8,Y
1558001775.1,286047008.6,P
1558001795.9,286047006.3,N
1558001815.7,286047010.6,N
1558001835.6,286047009.4,N
1558001855.4,286047009.6,N
1558001875.2,286047010.4,N
1558001895.1,286047009.7,N
1558001896.0,286047009.7,N
1558001915.8,286047010.3,N
1558001935.7,286047006.1,N
1558001955.5,286047009.2,N
1558001975.3,286047004.8,N
1558001995.2,286047005.6,N
1558002015.9,286047005.4,N
1558002035.7,286047004.1,N
1558002055.6,286047001.0,N
1558002075.4,286046997.2,N
1558002095.3,286046995.1,N
1558002115.1,286046996.0,N
1558002116.0,286046996.0,N
1558002135.8,286046994.2,N
1558002155.7,286046992.0,N
1558002175.5,286046992.0,N
1558002195.3,286046992.3,N
1558002215.2,286046991.9,N
1558002235.0,286046994.8,N
1558002235.9,286046994.8,N
1558002255.8,286046993.4,N
1558002275.6,286046996.3,N
1558002295.4,286046996.6,N
1558002315.3,286046998.2,N
1558002335.1,286047000.2,N
1558002355.8,286047002.6,N
1558002375.7,286047002.3,N
1558002395.5,286046999.7,N
1558002415.4,286046999.9,N
1558002435.2,286046999.5,N
1558002455.0,286046996.5,N
1558002455.9,286046996.5,N
1558002475.8,286046996.8,N
1558002495.6,286046997.9,N
1558002515.5,286046997.6,N
1558002535.3,286046998.0,N
1558002555.1,286046995.1,N
1558002575.9,286046995.0,N
1558002595.7,286046994.9,N
1558002615.5,286046996.3,N
1558002635.4,286046994.9,N
1558002655.2,286046996.7,N
1558002675.1,286046995.0,N
1558002676.0,286046995.0,N
1558002695.8,286046996.3,N
1558002715.6,286046993.5,N
1558002735.5,286046994.6,N
1558002755.3,286046993.7,N
1558002775.2,286046994.4,N
1558002795.9,286046992.3,Y
1558002815.7,286046997.1,P
1558002835.6,286046995.8,P
1558002855.4,286046997.0,P
1558002875.2,286047001.0,N
1558002895.1,286046999.2,N
1558002896.0,286046999.2,N
1558002915.8,286046999.1,N
1558002935.7,286046999.6,N
1558002955.5,286046999.1,N
1558002975.3,286046998.1,N
1558002995.2,286046999.5,N
1558003015.0,286046995.4,Y
1558003015.9,286046995.4,P
1558003035.8,286046996.6,N
1558003055.6,286046999.2,N
1558003075.4,286046997.6,N
1558003095.3,286046999.6,N
1558003115.1,286046997.2,N
1558003135.8,286046999.5,N
1558003155.7,286047000.5,N
1558003175.5,286047000.3,N
1558003195.4,286047000.5,N
1558003215.2,286046998.9,N
1558003235.0,286047000.8,N
1558003235.9,286047000.8,N
1558003255.8,286047000.6,N
1558003275.6,286047001.5,N
1558003295.5,286047001.7,N
1558003315.3,286047002.2,N
1558003335.1,286047002.4,N
1558003355.9,286047001.9,N
1558003375.7,286046999.8,N
1558003395.5,286047000.1,N
1558003415.4,286047000.5,N
1558003435.2,286046999.9,N
1558003455.1,286047000.6,N
1558003456.0,286047000.6,N
1558003475.8,286047000.2,N
1558003495.6,286047002.3,N
1558003515.5,286047002.4,N
1558003535.3,286047000.7,N
1558003555.1,286047001.1,N
1558003575.9,286046998.6,N
1558003595.7,286046998.2,N
1558003615.6,286046999.7,N
1558003635.4,286046999.9,N
1558003655.2,286047001.4,N
1558003675.1,286047003.2,N
1558003676.0,286047003.2,N
1558003695.8,286047004.2,Y
1558003715.7,286047001.7,P
1558003735.5,286047002.0,P
1558003755.3,286047002.8,P
1558003775.2,286046998.7,N
1558003795.0,286046999.6,N
1558003795.9,286046999.6,N
1558003815.7,286046997.0,N
1558003835.6,286047002.8,N
1558003855.4,286047002.8,N
1558003875.3,286047002.1,N
1558003895.1,286047003.9,N
1558003915.8,286047005.4,N
1558003935.7,286047003.7,N
1558003955.5,286047003.6,N
1558003975.4,286047005.2,N
1558003995.2,286047009.1,Y
1558004015.0,286047007.0,P
1558004015.9,286047007.0,N
1558004035.8,286047008.7,P
1558004055.6,286047008.1,Y
1558004075.4,286047001.9,P
1558004095.3,286046998.7,N
1558004115.1,286046997.3,N
1558004135.9,286046996.0,N
1558004155.7,286046995.9,N
1558004175.5,286046995.3,N
1558004195.4,286046994.0,N
1558004215.2,286046992.3,N
1558004235.0,286046991.5,N
1558004236.0,286046991.5,N
1558004255.8,286046991.5,N
1558004275.6,286046989.4,N
1558004295.5,286046987.7,N
1558004315.3,286046991.5,N
1558004335.1,286046992.8,N
1558004355.9,286046991.8,N
1558004375.7,286046996.1,N
1558004395.6,286046997.5,N
